La Junta, CO

9:34 AM MST on February 23, 2018 (GMT -0700)
La Junta Municipal

Weather History for KLHX - December, 2014

Change the Weather History Date:

Sunday, December 14, 2014

  Actual Average Record
Temperature  
Mean Temperature 36 °F 30 °F  
Max Temperature 44 °F 44 °F 70 °F (1946)
Min Temperature 27 °F 17 °F -3 °F (1951)
Degree Days  
Heating Degree Days 29 35  
Month to date heating degree days 366 464  
Since 1 July heating degree days 1437 1609  
Cooling Degree Days 0 0  
Month to date cooling degree days 0 0  
Year to date cooling degree days 1369 1226  
Moisture  
Dew Point 30 °F    
Average Humidity 76    
Maximum Humidity 92    
Minimum Humidity 60    
Precipitation  
Precipitation 0.45 in 0.01 in 0.45 in (2014)
Month to date precipitation 0.45 0.12  
Year to date precipitation 13.88  
Sea Level Pressure  
Sea Level Pressure 29.68 in    
Wind  
Wind Speed 18 mph (NNW)    
Max Wind Speed 37 mph    
Max Gust Speed 47 mph    
Visibility 6 miles    
Events Fog , Snow , Thunderstorm    
T = Trace of Precipitation, MM = Missing Value Source: NWS Daily Summary

Daily Weather History Graph

Daily Weather History Graph

Search for Another Location

Airport or City:

Trip Planner

Search our weather history database for the weather conditions in past years. The results will help you decide how hot, cold, wet, or windy it might be!

Date:

Astronomy

Dec. 14, 2014 Rise Set
Actual Time 7:02 AM MST 4:35 PM MST
Civil Twilight 6:32 AM MST 5:04 PM MST
Nautical Twilight 5:59 AM MST 5:37 PM MST
Astronomical Twilight 5:27 AM MST 6:09 PM MST
Moon No Moon Rise 12:01 PM MST (12/14)
Length of Visible Light 10h 31m
Length of Day
9h 32m
Waning Gibbous, 48% of the Moon is Illuminated
Dec 14
Waning Gibbous
Dec 21
New
Dec 28
First Quarter
Jan 4
Full
Jan 13
Last Quarter

Hourly Weather History & Observations

Time (MST) Temp. Windchill Dew Point Humidity Pressure Visibility Wind Dir Wind Speed Gust Speed Precip Events Conditions
12:53 AM 28.9 °F 23.9 °F 25.0 °F 85% 29.65 in 10.0 mi NNE 4.6 mph - N/A   Clear
1:53 AM 28.9 °F 21.9 °F 26.1 °F 89% 29.64 in 10.0 mi NW 6.9 mph - N/A   Clear
2:53 AM 33.1 °F 24.9 °F 28.9 °F 85% 29.62 in 10.0 mi NW 10.4 mph - N/A   Scattered Clouds
3:53 AM 30.9 °F - 27.0 °F 85% 29.61 in 10.0 mi Calm Calm - N/A   Partly Cloudy
4:53 AM 30.9 °F 23.5 °F 27.0 °F 85% 29.60 in 10.0 mi NNW 8.1 mph - N/A   Clear
5:53 AM 28.9 °F 21.9 °F 26.1 °F 89% 29.61 in 10.0 mi WNW 6.9 mph - N/A   Clear
6:53 AM 30.0 °F 21.7 °F 27.0 °F 88% 29.62 in 10.0 mi WNW 9.2 mph - N/A   Clear
7:53 AM 28.9 °F 19.2 °F 26.1 °F 89% 29.59 in 10.0 mi WNW 11.5 mph - N/A   Clear
8:53 AM 37.9 °F 32.7 °F 30.9 °F 76% 29.59 in 10.0 mi ENE 6.9 mph - N/A   Mostly Cloudy
9:17 AM 39.0 °F 32.8 °F 33.1 °F 79% 29.57 in 10.0 mi NNE 9.2 mph - N/A   Overcast
9:53 AM 41.0 °F 31.4 °F 28.9 °F 62% 29.53 in 10.0 mi NNE 21.9 mph - N/A   Overcast
10:53 AM 42.1 °F 32.3 °F 34.0 °F 73% 29.54 in 10.0 mi North 24.2 mph 38.0 mph N/A   Overcast
11:53 AM 42.1 °F 31.5 °F 30.0 °F 62% 29.53 in 9.0 mi North 28.8 mph 42.6 mph N/A   Overcast
12:37 PM 37.0 °F 24.9 °F 32.0 °F 82% 29.53 in 2.5 mi North 27.6 mph 42.6 mph 0.04 in Snow Light Snow
12:53 PM 36.0 °F 22.8 °F 33.1 °F 89% 29.55 in 3.0 mi North 31.1 mph 41.4 mph 0.07 in Snow Light Snow
1:04 PM 36.0 °F 22.6 °F 33.1 °F 89% 29.55 in 2.0 mi North 32.2 mph 41.4 mph 0.02 in Snow , Thunderstorm Light Snow
1:22 PM 34.0 °F 20.5 °F 32.0 °F 92% 29.56 in 1.8 mi North 28.8 mph 40.3 mph 0.06 in Snow Light Snow
1:32 PM 35.1 °F 22.2 °F 30.9 °F 85% 29.57 in 1.2 mi North 27.6 mph 46.0 mph 0.08 in Snow Light Snow
1:38 PM 35.1 °F 24.5 °F 32.0 °F 89% 29.58 in 3.0 mi North 18.4 mph 38.0 mph 0.09 in Snow Light Snow
1:53 PM 36.0 °F 23.9 °F 33.1 °F 89% 29.59 in 5.0 mi North 25.3 mph 32.2 mph 0.11 in Snow Light Snow
2:21 PM 36.0 °F 23.7 °F 33.1 °F 89% 29.59 in 2.0 mi North 26.5 mph 34.5 mph 0.04 in Snow Light Snow
2:48 PM 35.6 °F 23.7 °F 32.0 °F 87% 29.62 in 3.0 mi North 24.2 mph 33.4 mph 0.09 in Snow Light Snow
2:53 PM 35.1 °F 23.0 °F 32.0 °F 89% 29.65 in 4.0 mi North 24.2 mph 32.2 mph 0.10 in Snow Light Snow
3:04 PM 34.0 °F 21.5 °F 32.0 °F 92% 29.64 in 1.8 mi North 24.2 mph 31.1 mph 0.01 in Snow Light Snow
3:12 PM 34.0 °F 22.1 °F 32.0 °F 92% 29.64 in 0.8 mi North 21.9 mph 32.2 mph 0.01 in Snow Light Snow
3:53 PM 33.1 °F 21.5 °F 30.9 °F 92% 29.71 in 0.5 mi North 19.6 mph 34.5 mph 0.02 in Fog , Snow Snow
4:05 PM 33.1 °F 21.5 °F 32.0 °F 96% 29.69 in 0.5 mi North 19.6 mph - 0.00 in Fog , Snow Snow
4:13 PM 33.1 °F 20.3 °F 30.9 °F 92% 29.69 in 1.2 mi North 24.2 mph 29.9 mph 0.00 in Snow Light Snow
4:16 PM 33.1 °F 20.6 °F 30.9 °F 92% 29.69 in 1.0 mi North 23.0 mph 31.1 mph 0.00 in Snow Light Snow
4:25 PM 33.1 °F 19.8 °F 30.9 °F 92% 29.69 in 0.8 mi North 26.5 mph 38.0 mph 0.01 in Snow Light Snow
4:30 PM 33.1 °F 18.9 °F 30.9 °F 92% 29.69 in 1.0 mi North 31.1 mph 40.3 mph 0.01 in Snow Light Snow
4:49 PM 33.8 °F 19.6 °F 30.2 °F 87% 29.70 in 1.2 mi North 32.2 mph 43.7 mph 0.03 in Snow Light Snow
4:53 PM 33.1 °F 18.7 °F 30.9 °F 92% 29.73 in 1.2 mi North 32.2 mph 43.7 mph 0.04 in Snow Light Snow
5:09 PM 34.0 °F 21.0 °F 30.9 °F 89% 29.72 in 2.0 mi North 26.5 mph 41.4 mph 0.02 in Snow Light Snow
5:17 PM 35.1 °F 22.7 °F 30.9 °F 85% 29.71 in 8.0 mi North 25.3 mph - 0.03 in Snow Light Snow
5:42 PM 34.0 °F 22.1 °F 30.9 °F 89% 29.73 in 10.0 mi North 21.9 mph 29.9 mph 0.05 in   Overcast
5:53 PM 34.0 °F 22.1 °F 30.9 °F 89% 29.76 in 10.0 mi North 21.9 mph 28.8 mph 0.06 in   Overcast
6:16 PM 33.1 °F 24.4 °F 32.0 °F 96% 29.77 in 2.5 mi North 11.5 mph - 0.02 in Snow Light Snow
6:26 PM 33.1 °F 25.5 °F 32.0 °F 96% 29.78 in 1.5 mi NW 9.2 mph - 0.02 in Snow Light Snow
6:34 PM 33.1 °F 23.9 °F 32.0 °F 96% 29.78 in 1.5 mi NW 12.7 mph - 0.02 in Snow Light Snow
6:42 PM 33.1 °F 24.4 °F 32.0 °F 96% 29.79 in 3.0 mi NW 11.5 mph - 0.02 in Snow Light Snow
6:49 PM 33.8 °F 25.8 °F 30.2 °F 87% 29.79 in 8.0 mi NW 10.4 mph - 0.03 in Snow Light Snow
6:53 PM 34.0 °F 26.0 °F 30.9 °F 89% 29.82 in 9.0 mi NW 10.4 mph - 0.03 in   Overcast
7:34 PM 35.1 °F 26.9 °F 30.0 °F 82% 29.81 in 10.0 mi NW 11.5 mph - 0.01 in   Overcast
7:53 PM 34.0 °F 26.6 °F 30.0 °F 85% 29.85 in 10.0 mi NW 9.2 mph - 0.02 in   Overcast
8:19 PM 35.1 °F 27.9 °F 30.0 °F 82% 29.82 in 10.0 mi NNW 9.2 mph - N/A   Overcast
8:53 PM 35.1 °F 24.5 °F 30.0 °F 82% 29.82 in 10.0 mi North 18.4 mph - N/A   Overcast
9:53 PM 35.1 °F 23.3 °F 28.9 °F 78% 29.81 in 10.0 mi North 23.0 mph - N/A   Overcast
10:53 PM 35.1 °F 24.8 °F 28.9 °F 78% 29.84 in 10.0 mi NW 17.3 mph 24.2 mph N/A   Overcast
11:53 PM 34.0 °F 21.8 °F 28.0 °F 79% 29.86 in 10.0 mi NNW 23.0 mph 28.8 mph N/A   Overcast